{"data":{"norad_id":59134,"intl_designator":"2024-043AN","name":"JACKAL X-1L-002","alt_names":[],"object_type":"PAYLOAD","status":"ACTIVE","operator":null,"country":"US","launch_date":"2024-03-04","launch_site_code":"AFWTR","launch_vehicle":null,"mission":null,"orbit_class":"UNKNOWN","rcs_meters":null,"size_class":null,"mass_kg":null,"dimensions":null,"purposes":[],"wikipedia_slug":null,"has_3d_model":false,"image_url":null,"decayed_at":null,"tle_current":{"epoch":"2026-05-24T23:36:44.123328Z","epoch_age_seconds":90650,"freshness":"FRESH","line1":"1 59134U 24043AN  26144.98384402  .00016780  00000+0  35312-3 0  9998","line2":"2 59134  97.5546 289.9867 0006051 293.2304  66.8307 15.45352891124037","mean_motion":15.45352891,"eccentricity":0.0006051,"inclination_deg":97.5546,"raan_deg":289.9867,"arg_perigee_deg":293.2304,"mean_anomaly_deg":66.8307,"bstar":0.00035312,"rev_number":12403,"period_min":93.182599805289,"perigee_km":426.22155884583,"apogee_km":434.46117936813,"semimajor_km":6808.478369107,"source":"CELESTRAK","updated_at":"2026-05-25T13:38:01.197785Z"}}}